Hourly Weather Bolshoy Michkas

Today, 27 July, Tuesday

Time Temperature Precipitation Wind Pressure Humidity
00:00 +18°C° 0 mm 2 mps 752 mmHg 62%
01:00 +18°C° 0 mm 2 mps 752 mmHg 61%
02:00 +18°C° 0 mm 2 mps 752 mmHg 60%
03:00 +18°C° 0 mm 2 mps 752 mmHg 59%
04:00 +18°C° 0 mm 2 mps 752 mmHg 63%
05:00 +18°C° 0 mm 2 mps 752 mmHg 67%
06:00 +18°C° 0 mm 2 mps 752 mmHg 70%
07:00 +20°C° 0 mm 2 mps 752 mmHg 67%
08:00 +21°C° 0 mm 2 mps 752 mmHg 63%
09:00 +23°C° 0 mm 2 mps 752 mmHg 60%
10:00 +25°C° 0 mm 2 mps 752 mmHg 54%
11:00 +26°C° 0 mm 2 mps 752 mmHg 48%
12:00 +28°C° 0 mm 2 mps 751 mmHg 41%
13:00 +28°C° 0 mm 2 mps 751 mmHg 42%
14:00 +28°C° 0 mm 2 mps 751 mmHg 43%
15:00 +28°C° 0 mm 3 mps 750 mmHg 44%
16:00 +27°C° 0 mm 2 mps 750 mmHg 48%
17:00 +26°C° 0 mm 1 mps 750 mmHg 52%
18:00 +25°C° 0 mm 1 mps 750 mmHg 56%
19:00 +24°C° 0 mm 1 mps 750 mmHg 58%
20:00 +23°C° 0 mm 2 mps 750 mmHg 61%
21:00 +20°C° 0 mm 2 mps 750 mmHg 63%
22:00 +20°C° 0 mm 2 mps 750 mmHg 64%
23:00 +19°C° 0 mm 2 mps 750 mmHg 64%

Tomorrow, 28 July, Wednesday

Time Temperature Precipitation Wind Pressure Humidity
00:00 +19°C° 0 mm 2 mps 750 mmHg 64%
01:00 +18°C° 0 mm 2 mps 749 mmHg 66%
02:00 +18°C° 0 mm 2 mps 749 mmHg 67%
03:00 +18°C° 0 mm 2 mps 749 mmHg 68%
04:00 +18°C° 0 mm 2 mps 749 mmHg 71%
05:00 +18°C° 0 mm 2 mps 749 mmHg 73%
06:00 +18°C° 0 mm 2 mps 749 mmHg 75%
07:00 +20°C° 0 mm 2 mps 749 mmHg 69%
08:00 +23°C° 0 mm 2 mps 749 mmHg 63%
09:00 +25°C° 0 mm 2 mps 749 mmHg 56%
10:00 +26°C° 0 mm 2 mps 749 mmHg 53%
11:00 +27°C° 0 mm 2 mps 748 mmHg 49%
12:00 +29°C° 0 mm 2 mps 748 mmHg 45%
13:00 +29°C° 0 mm 2 mps 748 mmHg 42%
14:00 +29°C° 0 mm 2 mps 748 mmHg 40%
15:00 +30°C° 0 mm 2 mps 747 mmHg 37%
16:00 +29°C° 0 mm 1 mps 747 mmHg 41%
17:00 +29°C° 0 mm 1 mps 747 mmHg 45%
18:00 +29°C° 0 mm 1 mps 747 mmHg 49%
19:00 +27°C° 0 mm 1 mps 747 mmHg 53%
20:00 +25°C° 0 mm 1 mps 746 mmHg 58%
21:00 +21°C° 0 mm 2 mps 746 mmHg 63%
22:00 +22°C° 0.1 mm 1 mps 746 mmHg 68%
23:00 +21°C° 0.1 mm 1 mps 746 mmHg 72%

Day after tomorrow, 29 July, Thursday

Time Temperature Precipitation Wind Pressure Humidity
00:00 +21°C° 0.1 mm 1 mps 746 mmHg 76%
01:00 +21°C° 0 mm 1 mps 746 mmHg 77%
02:00 +20°C° 0 mm 2 mps 745 mmHg 77%
03:00 +20°C° 0 mm 2 mps 745 mmHg 77%
04:00 +20°C° 0.1 mm 2 mps 745 mmHg 77%
05:00 +20°C° 0.1 mm 2 mps 744 mmHg 77%
06:00 +20°C° 0.1 mm 2 mps 744 mmHg 76%
07:00 +21°C° 0 mm 3 mps 743 mmHg 71%
08:00 +23°C° 0 mm 4 mps 743 mmHg 65%
09:00 +25°C° 0 mm 5 mps 743 mmHg 59%
10:00 +27°C° 0 mm 6 mps 742 mmHg 54%
11:00 +28°C° 0 mm 6 mps 742 mmHg 49%
12:00 +30°C° 0 mm 7 mps 742 mmHg 44%
13:00 +30°C° 0 mm 7 mps 741 mmHg 44%
14:00 +32°C° 0 mm 7 mps 741 mmHg 44%
15:00 +32°C° 0 mm 7 mps 741 mmHg 44%
16:00 +30°C° 0 mm 6 mps 741 mmHg 47%
17:00 +29°C° 0 mm 6 mps 741 mmHg 51%
18:00 +28°C° 0 mm 5 mps 741 mmHg 55%
19:00 +26°C° 0 mm 4 mps 741 mmHg 62%
20:00 +25°C° 0 mm 3 mps 741 mmHg 69%
21:00 +23°C° 0 mm 2 mps 741 mmHg 76%
22:00 +21°C° 0 mm 2 mps 741 mmHg 79%
23:00 +21°C° 0 mm 2 mps 742 mmHg 81%

30 July, Friday

Time Temperature Precipitation Wind Pressure Humidity
00:00 +20°C° 0 mm 2 mps 742 mmHg 84%
01:00 +20°C° 0 mm 2 mps 742 mmHg 85%
02:00 +19°C° 0 mm 2 mps 741 mmHg 86%
03:00 +19°C° 0 mm 2 mps 741 mmHg 88%
04:00 +20°C° 0 mm 2 mps 742 mmHg 85%
05:00 +20°C° 0 mm 2 mps 742 mmHg 82%
06:00 +21°C° 0 mm 2 mps 742 mmHg 79%
07:00 +23°C° 0 mm 2 mps 742 mmHg 73%
08:00 +25°C° 0 mm 2 mps 742 mmHg 66%
09:00 +27°C° 0 mm 2 mps 742 mmHg 60%
10:00 +27°C° 0 mm 2 mps 742 mmHg 59%
11:00 +27°C° 0 mm 3 mps 743 mmHg 58%
12:00 +28°C° 0 mm 3 mps 743 mmHg 57%
13:00 +27°C° 0 mm 3 mps 742 mmHg 60%
14:00 +27°C° 0 mm 4 mps 742 mmHg 64%
15:00 +26°C° 0 mm 4 mps 742 mmHg 67%
16:00 +26°C° 0 mm 3 mps 742 mmHg 66%
17:00 +26°C° 0 mm 3 mps 742 mmHg 65%
18:00 +27°C° 0 mm 2 mps 742 mmHg 65%
19:00 +25°C° 0.2 mm 2 mps 742 mmHg 72%
20:00 +24°C° 0.2 mm 3 mps 742 mmHg 78%
21:00 +21°C° 0.2 mm 3 mps 742 mmHg 85%
22:00 +21°C° 0.1 mm 3 mps 742 mmHg 87%
23:00 +20°C° 0.1 mm 3 mps 742 mmHg 90%

31 July, Saturday

Time Temperature Precipitation Wind Pressure Humidity
00:00 +20°C° 0.1 mm 3 mps 742 mmHg 92%
01:00 +20°C° 0 mm 2 mps 742 mmHg 91%
02:00 +20°C° 0 mm 2 mps 742 mmHg 91%
03:00 +20°C° 0 mm 2 mps 743 mmHg 90%
04:00 +20°C° 0.1 mm 2 mps 743 mmHg 90%
05:00 +20°C° 0.1 mm 2 mps 743 mmHg 90%
06:00 +21°C° 0.1 mm 2 mps 743 mmHg 90%
07:00 +23°C° 0.2 mm 2 mps 743 mmHg 84%
08:00 +24°C° 0.2 mm 3 mps 743 mmHg 77%
09:00 +26°C° 0.2 mm 3 mps 743 mmHg 71%
10:00 +27°C° 0.1 mm 3 mps 743 mmHg 61%
11:00 +29°C° 0.1 mm 3 mps 743 mmHg 52%
12:00 +30°C° 0.1 mm 3 mps 743 mmHg 42%
13:00 +31°C° 0 mm 3 mps 743 mmHg 40%
14:00 +31°C° 0 mm 3 mps 743 mmHg 38%
15:00 +33°C° 0 mm 4 mps 743 mmHg 36%
16:00 +32°C° 0 mm 4 mps 743 mmHg 41%
17:00 +30°C° 0 mm 3 mps 743 mmHg 46%
18:00 +29°C° 0 mm 3 mps 743 mmHg 50%
19:00 +28°C° 0 mm 3 mps 743 mmHg 52%
20:00 +26°C° 0 mm 3 mps 743 mmHg 54%
21:00 +25°C° 0 mm 3 mps 743 mmHg 55%
22:00 +25°C° 0 mm 3 mps 743 mmHg 57%
23:00 +24°C° 0 mm 3 mps 743 mmHg 59%

1 August, Sunday

Time Temperature Precipitation Wind Pressure Humidity
00:00 +22°C° 0 mm 3 mps 743 mmHg 62%
01:00 +22°C° 0 mm 3 mps 743 mmHg 63%
02:00 +21°C° 0 mm 3 mps 744 mmHg 65%
03:00 +21°C° 0 mm 3 mps 744 mmHg 66%
04:00 +21°C° 0 mm 3 mps 744 mmHg 67%
05:00 +21°C° 0 mm 2 mps 744 mmHg 68%
06:00 +23°C° 0 mm 2 mps 744 mmHg 69%
07:00 +25°C° 0 mm 3 mps 744 mmHg 63%
08:00 +27°C° 0 mm 3 mps 744 mmHg 58%
09:00 +29°C° 0 mm 4 mps 744 mmHg 53%
10:00 +30°C° 0 mm 4 mps 744 mmHg 48%
11:00 +32°C° 0 mm 5 mps 743 mmHg 42%
12:00 +34°C° 0 mm 5 mps 743 mmHg 37%
13:00 +34°C° 0 mm 5 mps 743 mmHg 36%
14:00 +34°C° 0 mm 5 mps 743 mmHg 34%
15:00 +35°C° 0 mm 6 mps 742 mmHg 32%
16:00 +34°C° 0 mm 5 mps 742 mmHg 36%
17:00 +33°C° 0 mm 4 mps 742 mmHg 39%
18:00 +33°C° 0 mm 4 mps 741 mmHg 43%
19:00 +29°C° 0 mm 4 mps 741 mmHg 51%
20:00 +27°C° 0 mm 4 mps 742 mmHg 59%
21:00 +25°C° 0 mm 4 mps 742 mmHg 67%
22:00 +23°C° 0.3 mm 4 mps 742 mmHg 71%
23:00 +24°C° 0.3 mm 3 mps 742 mmHg 76%
Show more

We Need Your Consent

Meteoprog and our Service Providers may store and access personal data such as cookies, device identifiers or other similar technologies on your device and process such data to personalise content and ads, as well as provide social media features and to analyse the traffic.

  • Store and/or access information on your device

    Cookies, device identifiers or other information can be stored or accessed on your device for the purposes indicated above.

  • Personalised ads and content, ad and content measurement, audience insights, and products development

    Ads and content can be personalised based on a profile. More data can be added to better personalise ads and content. Ad and content performance can be measured. Insights about the audience who saw the ads and content can be derived. Such data can be used to develop or improve user’s experience, systems and software.

By clicking ‘I Agree’ you will allow the use of indicated cookies, device identifiers, web beacons or other similar technologies. Your settings can be changed in the browser on your device.

For certain purposes, legitimate interests may be relied on, rather than consent. You can read more about this in our Privacy and Cookie Policy.